Location: Buckhorn Peak
(37.6641°N, 120.1241°W)
Time: 23:15:09
(UTC+00:00)

Vanguard 1 Rocket - Pass Details

Date: 13 November 2024
Orbit: 650 x 4218 km, 34.3° (Epoch: 06 December)

Event Time Altitude Azimuth Distance (km) Brightness Sun altitude
Rises 01:56:37 0° 283° (WNW) 6,188 12.9 -13.2°
Reaches altitude 10° 02:01:53 10° 276° (W) 4,543 12.2 -14.2°
Maximum altitude 02:11:23 34° 217° (SW) 2,024 9.6 -16.1°
Drops below altitude 10° 02:17:02 10° 154° (SSE) 2,653 9.6 -17.2°
Enters shadow 02:19:14 - 143° (SE) 3,341 10.0 -17.6°
